QPF
0.00 0.00 0.00 0.00 0.00 0.00 0.00 0.00 0.00 0.00 0.00 0.00 0.00 0.00 0.00 0.00 0.00 0.00 0.00 0.00 0.00 0.00 0.00 0.00 0.00 0.00 0.00 0.00 0.00 0.00 0.00 0.00 0.00 0.00 0.00 0.00 0.00 0.00 0.00 0.00 0.00 0.00 0.00
0.00 0.00 0.01 0.00 0.00 0.00 0.00 0.00 0.00 0.00 0.00 0.00 0.00 0.00 0.00 0.00 0.00 0.00 0.00 0.00 0.00 0.00 0.00 0.00 0.00 0.00 0.01 0.00 0.00 0.00 0.00 0.00 0.00 0.00 0.00 0.00 0.00 0.00 0.00 0.00 0.00 0.00 0.00
0.00 0.00 0.00 0.00 0.00 0.00 0.00 0.00 0.00 0.00 0.00 0.00 0.00 0.00 0.00 0.00 0.00 0.00 0.00 0.00 0.00 0.00 0.01 0.01 0.01 0.00 0.00 0.00 0.00 0.00 0.00 0.00 0.00 0.00 0.00 0.00 0.00 0.00 0.00 0.00 0.00 0.00 0.01
0.00 0.00 0.00 0.00 0.00 0.00 0.00 0.00 0.01 0.01 0.01 0.00 0.00 0.00 0.00 0.00 0.00 0.00 0.00 0.00 0.01 0.01 0.01 0.00 0.00 0.00 0.00 0.00 0.00 0.00 0.00 0.00 0.00 0.00 0.00 0.00 0.00 0.00 0.00 0.00 0.00 0.00 0.00
0.00 0.00 0.00 0.01 0.01 0.00 0.01 0.01 0.01 0.01 0.01 0.01 0.00 0.00 0.01 0.01 0.01 0.00 0.00 0.00 0.00 0.00 0.00 0.00 0.00 0.00 0.00 0.00 0.00 0.00 0.00 0.00 0.00 0.00 0.00 0.00 0.00 0.00 0.00 0.01 0.00 0.00 0.00
0.00 0.00 0.00 0.00 0.00 0.00 0.01 0.01 0.02 0.01 0.01 0.01 0.01 0.01 0.01 0.01 0.01 0.01 0.00 0.00 0.00 0.00 0.00 0.00 0.00 0.00 0.00 0.00 0.00 0.00 0.00 0.00 0.00 0.00 0.00 0.00 0.00 0.00 0.00 0.00 0.00 0.00 0.00
0.00 0.00 0.00 0.00 0.00 0.01 0.01 0.01 0.01 0.01 0.01 0.01 0.01 0.01 0.01 0.01 0.01 0.01 0.00 0.00 0.00 0.00 0.00 0.00 0.00 0.00 0.00 0.00 0.00 0.00 0.00 0.00 0.00 0.00 0.00 0.00 0.00 0.00 0.00 0.00 0.00 0.00 0.00
0.01 0.00 0.00 0.01 0.01 0.01 0.01 0.00 0.00 0.00 0.00 0.00 0.00 0.00 0.00 0.00 0.00 0.00 0.00 0.00 0.00 0.00 0.00 0.00 0.00 0.00 0.00 0.00 0.00 0.00 0.00 0.00 0.00 0.00 0.00 0.00 0.00 0.00 0.00 0.00 0.00 0.00 0.00
0.00 0.00 0.00 0.01 0.01 0.00 0.00 0.00 0.00 0.00 0.00 0.00 0.00 0.00 0.00 0.00 0.00 0.00 0.00 0.00 0.00 0.00 0.00 0.00 0.00 0.00 0.00 0.00 0.00 0.00 0.00 0.00 0.00 0.00 0.00 0.00 0.00 0.00 0.00 0.00 0.00 0.00 0.00
0.00 0.00 0.00 0.00 0.01 0.00 0.01 0.01 0.00 0.00 0.00 0.00 0.00 0.00 0.00 0.00 0.00 0.00 0.00 0.00 0.00 0.00 0.00 0.00 0.00 0.00 0.00 0.00 0.00 0.00 0.00 0.00 0.00 0.00 0.00 0.00 0.00 0.00 0.00 0.00 0.00 0.00 0.00
0.00 0.00 0.01 0.02 0.02 0.01 0.00 0.01 0.02 0.01 0.00 0.00 0.00 0.00 0.00 0.01 0.01 0.01 0.00 0.00 0.00 0.00 0.00 0.00 0.00 0.00 0.00 0.00 0.00 0.00 0.00 0.00 0.00 0.00 0.00 0.00 0.00 0.00 0.00 0.00 0.00 0.00 0.00
0.00 0.00 0.00 0.00 0.00 0.00 0.01 0.01 0.00 0.00 0.00 0.00 0.00 0.00 0.00 0.01 0.01 0.01 0.00 0.00 0.01 0.00 0.00 0.00 0.00 0.00 0.00 0.00 0.00 0.00 0.00 0.00 0.00 0.00 0.00 0.01 0.01 0.01 0.01 0.01 0.00 0.00 0.00
0.00 0.00 0.00 0.00 0.00 0.00 0.00 0.00 0.00 0.00 0.00 0.00 0.00 0.00 0.00 0.00 0.01 0.01 0.00 0.01 0.00 0.00 0.00 0.00 0.00 0.00 0.00 0.00 0.00 0.00 0.00 0.00 0.00 0.00 0.00 0.00 0.01 0.02 0.02 0.01 0.00 0.00 0.00
0.00 0.00 0.00 0.00 0.00 0.00 0.00 0.00 0.00 0.00 0.00 0.00 0.00 0.00 0.00 0.02 0.06 0.03 0.02 0.01 0.00 0.00 0.00 0.00 0.00 0.00 0.00 0.00 0.00 0.00 0.00 0.00 0.00 0.00 0.00 0.00 0.00 0.00 0.01 0.01 0.01 0.00 0.00
0.01 0.01 0.00 0.00 0.00 0.00 0.00 0.00 0.00 0.00 0.00 0.00 0.00 0.00 0.00 0.01 0.07 0.06 0.04 0.01 0.00 0.00 0.00 0.00 0.00 0.00 0.00 0.00 0.00 0.00 0.00 0.00 0.00 0.00 0.00 0.00 0.00 0.00 0.00 0.01 0.00 0.00 0.00
0.00 0.00 0.00 0.00 0.00 0.00 0.00 0.00 0.00 0.00 0.00 0.00 0.00 0.00 0.00 0.01 0.02 0.02 0.01 0.00 0.00 0.00 0.00 0.00 0.00 0.00 0.00 0.00 0.00 0.00 0.00 0.00 0.00 0.00 0.00 0.00 0.00 0.00 0.01 0.01 0.01 0.01 0.01
0.00 0.00 0.00 0.00 0.00 0.00 0.00 0.00 0.00 0.00 0.00 0.00 0.00 0.00 0.00 0.00 0.00 0.00 0.00 0.00 0.00 0.00 0.00 0.00 0.00 0.00 0.00 0.00 0.00 0.00 0.00 0.00 0.00 0.00 0.00 0.00 0.00 0.00 0.01 0.01 0.01 0.01 0.01
0.00 0.00 0.00 0.00 0.00 0.00 0.00 0.00 0.00 0.00 0.00 0.00 0.00 0.00 0.00 0.00 0.00 0.00 0.00 0.00 0.00 0.00 0.00 0.00 0.00 0.00 0.00 0.00 0.00 0.00 0.00 0.00 0.00 0.00 0.00 0.00 0.00 0.00 0.00 0.01 0.01 0.01 0.01
0.00 0.00 0.00 0.00 0.00 0.00 0.00 0.00 0.00 0.00 0.00 0.00 0.00 0.00 0.00 0.00 0.00 0.00 0.00 0.00 0.00 0.00 0.00 0.00 0.00 0.00 0.00 0.00 0.00 0.00 0.00 0.00 0.00 0.00 0.00 0.00 0.00 0.00 0.00 0.00 0.00 0.01 0.01
0.00 0.00 0.00 0.00 0.00 0.00 0.00 0.00 0.00 0.00 0.00 0.00 0.00 0.00 0.00 0.00 0.00 0.00 0.00 0.00 0.00 0.00 0.00 0.00 0.00 0.00 0.00 0.00 0.00 0.00 0.00 0.00 0.00 0.00 0.00 0.00 0.00 0.00 0.00 0.00 0.00 0.00 0.01
0.00 0.00 0.00 0.00 0.00 0.00 0.00 0.00 0.00 0.00 0.00 0.00 0.00 0.00 0.00 0.00 0.00 0.00 0.00 0.00 0.00 0.00 0.00 0.00 0.00 0.00 0.00 0.00 0.00 0.00 0.00 0.00 0.00 0.00 0.00 0.00 0.00 0.00 0.00 0.00 0.00 0.00 0.00
0.00 0.00 0.00 0.00 0.01 0.02 0.03 0.03 0.03 0.01 0.00 0.00 0.00 0.00 0.00 0.00 0.00 0.00 0.00 0.00 0.00 0.00 0.00 0.00 0.00 0.00 0.00 0.00 0.00 0.00 0.00 0.00 0.00 0.00 0.00 0.00 0.00 0.00 0.00 0.00 0.00 0.00 0.00
0.00 0.00 0.00 0.00 0.02 0.05 0.06 0.03 0.03 0.01 0.01 0.00 0.00 0.00 0.00 0.00 0.00 0.00 0.00 0.00 0.00 0.00 0.00 0.00 0.00 0.00 0.00 0.00 0.00 0.00 0.00 0.00 0.00 0.00 0.00 0.00 0.00 0.00 0.00 0.00 0.00 0.00 0.00
0.00 0.00 0.00 0.00 0.02 0.03 0.03 0.02 0.02 0.02 0.01 0.01 0.00 0.00 0.00 0.00 0.00 0.00 0.00 0.00 0.00 0.00 0.00 0.00 0.00 0.00 0.00 0.00 0.00 0.00 0.00 0.00 0.00 0.00 0.00 0.00 0.00 0.00 0.00 0.00 0.00 0.00 0.00
0.00 0.00 0.00 0.00 0.00 0.01 0.05 0.03 0.01 0.01 0.00 0.00 0.00 0.00 0.00 0.00 0.00 0.00 0.00 0.00 0.00 0.00 0.00 0.00 0.00 0.00 0.00 0.00 0.00 0.00 0.00 0.00 0.00 0.00 0.00 0.00 0.00 0.00 0.00 0.00 0.00 0.00 0.00
0.00 0.00 0.00 0.01 0.01 0.03 0.07 0.05 0.02 0.01 0.00 0.00 0.00 0.00 0.00 0.00 0.00 0.00 0.00 0.00 0.00 0.00 0.00 0.00 0.00 0.00 0.00 0.00 0.00 0.00 0.00 0.00 0.00 0.00 0.00 0.00 0.00 0.00 0.00 0.00 0.00 0.00 0.00
MSLP
1010.90 1011.03 1011.59 1011.73 1011.83 1011.92 1012.52 1012.76 1013.00 1013.26 1013.35 1013.63 1013.92 1014.13 1014.43 1014.78 1015.00 1015.23 1015.42 1015.51 1015.70 1016.03 1016.17 1016.47 1016.81 1017.07 1017.18 1017.45 1017.64 1017.72 1017.70 1017.65 1017.58 1017.43 1017.33 1017.25 1017.19 1017.16 1017.23 1017.23 1017.30 1016.94 1017.29
1010.71 1010.92 1011.44 1011.79 1012.07 1012.14 1012.63 1012.86 1012.99 1013.40 1013.62 1013.88 1014.18 1014.52 1014.81 1015.04 1015.27 1015.53 1015.72 1015.81 1015.95 1016.22 1016.45 1016.70 1017.03 1017.29 1017.57 1017.68 1017.80 1017.91 1017.96 1017.94 1017.82 1017.64 1017.57 1017.38 1017.21 1017.23 1017.24 1017.36 1017.41 1017.35 1017.53
1011.17 1011.24 1011.55 1011.76 1011.99 1012.21 1012.79 1013.11 1013.24 1013.50 1013.83 1014.17 1014.47 1014.76 1015.02 1015.28 1015.46 1015.73 1015.92 1016.05 1016.26 1016.59 1016.85 1017.08 1017.27 1017.53 1017.81 1017.95 1017.92 1017.90 1018.03 1018.04 1018.05 1017.95 1017.69 1017.15 1016.98 1017.18 1017.19 1017.38 1017.40 1017.55 1017.62
1011.38 1011.71 1011.78 1012.16 1012.06 1012.39 1012.78 1013.22 1013.47 1013.87 1014.26 1014.45 1014.70 1015.07 1015.25 1015.50 1015.63 1015.81 1016.12 1016.38 1016.68 1016.94 1017.18 1017.49 1017.62 1017.83 1018.00 1018.10 1018.17 1018.01 1018.11 1018.08 1018.06 1017.95 1017.43 1017.37 1017.12 1017.29 1017.23 1017.41 1017.48 1017.59 1017.67
1011.69 1011.74 1012.16 1012.47 1012.59 1012.60 1012.93 1013.27 1013.60 1013.93 1014.49 1014.87 1015.13 1015.31 1015.65 1015.87 1016.07 1016.38 1016.67 1016.93 1017.10 1017.22 1017.49 1017.73 1017.85 1018.11 1018.25 1018.40 1018.48 1018.29 1018.19 1018.29 1018.20 1017.74 1017.58 1017.44 1017.12 1017.13 1017.37 1017.54 1017.61 1017.85 1017.92
1011.69 1011.81 1012.07 1012.31 1012.69 1012.88 1013.12 1013.17 1013.49 1013.99 1014.38 1014.91 1015.45 1015.74 1016.03 1016.29 1016.57 1016.90 1017.14 1017.38 1017.60 1017.59 1017.81 1017.84 1017.88 1018.04 1018.43 1018.81 1018.66 1018.63 1018.18 1018.31 1018.00 1017.76 1017.58 1017.61 1017.33 1017.69 1017.86 1017.99 1018.00 1018.17 1018.35
1011.46 1011.93 1012.11 1012.30 1012.62 1012.94 1013.16 1013.28 1013.95 1013.33 1015.14 1014.85 1015.37 1015.93 1016.27 1016.60 1017.00 1017.31 1017.47 1017.65 1017.87 1018.12 1018.37 1018.21 1018.08 1018.33 1018.38 1018.69 1018.92 1018.77 1018.66 1018.43 1018.09 1018.15 1018.07 1018.26 1018.35 1018.38 1018.43 1018.48 1018.62 1018.65 1018.75
1011.47 1011.81 1012.12 1012.47 1012.61 1012.88 1013.23 1013.72 1013.64 1014.00 1014.69 1015.01 1015.33 1015.97 1016.47 1016.80 1017.17 1017.47 1017.66 1017.71 1017.94 1017.98 1018.75 1018.76 1018.54 1018.54 1018.91 1018.84 1019.28 1019.11 1019.15 1018.70 1018.54 1018.66 1018.62 1018.75 1019.00 1018.91 1018.97 1019.02 1019.19 1019.20 1019.31
1011.89 1011.90 1012.04 1012.43 1012.95 1013.15 1013.50 1013.83 1014.16 1014.49 1014.71 1015.02 1015.54 1016.16 1016.64 1016.97 1017.23 1017.49 1017.81 1017.98 1018.26 1018.03 1018.99 1018.90 1018.89 1018.72 1018.96 1019.35 1019.25 1019.72 1019.56 1019.15 1018.93 1019.23 1019.09 1019.27 1019.53 1019.38 1019.42 1019.57 1019.70 1019.81 1019.77
1012.21 1012.16 1011.86 1012.10 1012.73 1013.31 1013.78 1014.02 1014.47 1014.86 1015.20 1015.51 1015.94 1016.38 1016.80 1016.69 1017.15 1017.58 1017.87 1018.30 1018.16 1018.47 1019.22 1019.29 1019.42 1019.16 1018.96 1018.90 1019.72 1020.10 1019.98 1019.39 1019.39 1019.55 1019.58 1019.95 1019.93 1019.83 1019.88 1020.06 1020.08 1020.19 1020.07
1012.14 1012.52 1012.41 1012.33 1012.41 1012.91 1013.67 1014.37 1014.69 1014.90 1015.41 1015.89 1016.20 1016.83 1016.97 1017.28 1017.00 1017.70 1018.17 1018.50 1018.42 1018.98 1019.15 1019.46 1020.01 1020.13 1018.98 1019.27 1020.36 1020.49 1020.02 1019.69 1019.73 1019.77 1019.98 1020.38 1020.18 1020.13 1020.22 1020.47 1020.62 1020.70 1020.70
1011.95 1012.28 1012.70 1012.85 1012.93 1013.12 1013.35 1013.88 1014.70 1015.21 1015.48 1015.93 1016.57 1016.95 1017.08 1017.57 1017.47 1017.58 1018.24 1018.70 1019.02 1019.18 1019.30 1019.77 1019.77 1020.16 1019.12 1020.05 1020.47 1020.71 1020.43 1020.42 1020.39 1020.44 1020.91 1020.74 1020.48 1020.60 1020.86 1021.16 1021.29 1021.35 1021.39
1011.70 1011.94 1012.38 1012.90 1013.06 1013.42 1014.00 1014.11 1014.57 1015.33 1015.87 1016.16 1016.45 1016.82 1017.31 1017.59 1017.90 1018.39 1018.98 1019.47 1019.54 1019.36 1019.65 1020.20 1019.65 1019.96 1020.14 1020.36 1020.82 1021.07 1021.13 1021.06 1021.22 1021.44 1022.08 1021.59 1021.23 1021.27 1021.37 1021.63 1021.77 1021.90 1021.90
1011.32 1012.02 1012.03 1012.75 1013.42 1013.68 1013.91 1014.35 1014.87 1015.13 1015.79 1016.47 1016.76 1016.77 1016.88 1017.47 1018.19 1018.94 1019.23 1019.61 1019.62 1019.37 1019.45 1019.89 1020.07 1020.49 1020.56 1021.06 1021.41 1021.67 1021.63 1021.66 1021.97 1022.12 1022.79 1022.63 1022.43 1022.21 1022.14 1022.17 1022.22 1022.36 1022.46
1010.95 1011.58 1012.19 1012.33 1012.78 1013.84 1014.45 1014.61 1015.02 1015.54 1015.78 1015.76 1016.82 1017.19 1017.14 1017.39 1018.05 1018.93 1019.26 1019.40 1019.60 1019.58 1019.79 1020.14 1020.33 1020.72 1021.08 1021.65 1022.03 1022.28 1022.56 1022.68 1023.03 1023.19 1023.61 1023.74 1023.60 1023.43 1023.12 1022.97 1022.88 1022.85 1022.86
1010.31 1011.17 1012.09 1012.56 1012.71 1013.30 1014.05 1014.53 1015.17 1015.56 1016.17 1016.41 1016.52 1016.89 1017.53 1017.74 1017.91 1018.23 1018.75 1019.20 1019.44 1019.54 1019.99 1020.46 1020.74 1021.10 1021.74 1022.12 1022.65 1022.96 1023.10 1023.49 1023.88 1024.17 1024.61 1024.99 1024.76 1024.60 1024.20 1023.94 1023.68 1023.44 1023.29
1010.17 1010.70 1011.80 1012.55 1013.11 1013.33 1013.95 1014.43 1014.94 1015.71 1016.08 1016.64 1016.97 1017.27 1017.45 1017.63 1017.82 1018.15 1018.45 1018.99 1019.47 1019.89 1020.34 1020.81 1020.81 1021.26 1021.90 1022.47 1023.11 1023.63 1023.94 1024.35 1024.64 1024.97 1025.20 1025.53 1025.67 1025.63 1025.26 1024.95 1024.68 1024.38 1024.14
1009.88 1010.27 1011.02 1011.88 1012.59 1013.06 1013.79 1014.36 1015.01 1015.40 1016.18 1016.53 1016.99 1017.29 1017.76 1017.95 1018.00 1018.05 1018.31 1018.66 1019.35 1019.91 1020.30 1020.71 1020.78 1021.34 1021.96 1022.75 1023.32 1024.01 1024.56 1025.02 1025.40 1025.62 1025.92 1026.18 1026.17 1026.14 1026.25 1026.01 1025.72 1025.40 1024.96
1008.96 1009.70 1010.19 1011.32 1012.17 1012.84 1013.50 1014.27 1014.93 1015.67 1015.97 1016.53 1016.76 1017.12 1017.89 1018.22 1018.51 1018.36 1018.57 1018.93 1019.28 1019.61 1020.14 1020.71 1021.28 1021.23 1022.27 1023.19 1023.97 1024.78 1025.31 1025.54 1025.72 1026.00 1026.20 1026.47 1026.75 1026.67 1026.63 1026.92 1026.70 1026.48 1025.98
1008.36 1009.50 1009.85 1010.50 1011.73 1012.52 1013.44 1014.04 1014.98 1015.69 1016.23 1016.54 1016.64 1017.18 1017.50 1018.24 1018.80 1019.09 1018.99 1019.32 1019.56 1019.79 1020.02 1020.33 1021.18 1021.65 1022.23 1023.22 1024.31 1025.23 1025.78 1026.08 1026.07 1026.41 1026.57 1026.92 1027.19 1027.12 1027.09 1027.12 1027.00 1027.27 1026.81
1007.89 1009.07 1009.82 1010.40 1011.27 1012.23 1013.13 1013.70 1014.49 1015.08 1016.15 1016.43 1016.54 1017.12 1017.69 1018.16 1018.73 1019.36 1019.73 1019.69 1019.56 1019.79 1020.10 1020.88 1021.26 1021.73 1022.80 1023.58 1023.64 1025.42 1026.10 1026.40 1026.79 1027.06 1027.28 1027.38 1027.43 1027.63 1027.67 1027.52 1027.43 1027.48 1027.40
1007.09 1008.17 1009.25 1010.04 1010.82 1011.48 1012.52 1013.21 1013.89 1014.97 1015.95 1016.63 1016.98 1017.04 1017.44 1018.25 1018.75 1019.26 1019.64 1019.61 1019.39 1019.66 1020.30 1020.86 1021.26 1021.76 1022.74 1022.99 1022.92 1023.79 1025.43 1027.04 1027.47 1027.71 1027.78 1027.78 1027.93 1027.93 1028.21 1028.13 1027.89 1027.76 1027.67
1006.30 1006.88 1007.68 1008.52 1009.67 1010.67 1011.62 1012.82 1013.72 1014.76 1015.58 1016.54 1016.88 1017.24 1017.54 1018.17 1018.59 1019.21 1019.82 1020.00 1019.55 1019.47 1019.92 1020.62 1020.95 1021.00 1021.57 1022.97 1022.80 1022.59 1023.97 1024.69 1027.07 1028.19 1028.12 1028.12 1028.34 1028.38 1028.41 1028.35 1028.29 1028.26 1028.13
1004.97 1006.36 1006.99 1007.60 1008.44 1009.46 1010.63 1011.73 1012.61 1013.20 1014.35 1015.24 1016.27 1016.80 1017.65 1018.24 1018.40 1018.99 1019.38 1019.98 1019.95 1019.70 1019.72 1020.13 1020.66 1020.85 1021.01 1021.73 1022.90 1023.27 1023.44 1023.74 1024.84 1027.06 1028.13 1028.32 1028.53 1028.62 1028.74 1028.60 1028.57 1028.55 1028.55
1005.15 1005.99 1006.86 1007.73 1008.48 1008.98 1009.95 1010.76 1012.01 1013.14 1014.06 1014.78 1016.10 1016.61 1017.64 1018.25 1018.86 1019.11 1019.25 1019.96 1020.05 1020.26 1020.35 1020.28 1020.62 1020.97 1020.97 1021.37 1021.80 1022.82 1023.46 1023.88 1024.18 1024.61 1026.67 1028.11 1028.53 1028.85 1028.98 1028.97 1028.98 1028.98 1029.02
1004.73 1005.43 1006.15 1007.18 1008.01 1008.83 1009.56 1010.74 1011.12 1012.22 1013.42 1014.37 1015.57 1016.57 1017.27 1018.11 1018.78 1019.24 1019.43 1019.92 1020.05 1020.44 1020.73 1020.65 1020.89 1021.16 1021.35 1021.65 1022.07 1022.28 1022.37 1022.77 1023.35 1024.01 1025.21 1027.00 1027.76 1028.88 1029.04 1029.17 1029.34 1029.46 1029.46
Thickness
5752 5753 5749 5748 5747 5746 5742 5740 5737 5735 5735 5733 5731 5729 5727 5724 5722 5720 5718 5718 5716 5713 5711 5708 5705 5702 5701 5698 5696 5696 5696 5696 5695 5695 5694 5694 5694 5695 5694 5695 5694 5697 5696
5750 5749 5746 5744 5741 5741 5737 5735 5734 5730 5728 5726 5725 5722 5720 5718 5716 5714 5713 5712 5711 5708 5705 5703 5700 5697 5694 5693 5692 5691 5690 5690 5691 5691 5689 5689 5692 5691 5691 5690 5690 5692 5691
5743 5741 5739 5739 5738 5736 5731 5729 5728 5726 5722 5719 5717 5715 5714 5712 5711 5708 5707 5706 5704 5701 5699 5696 5694 5692 5689 5687 5687 5687 5686 5685 5685 5685 5686 5687 5689 5688 5688 5687 5688 5688 5687
5737 5734 5733 5730 5732 5730 5727 5723 5721 5717 5714 5713 5711 5708 5707 5705 5704 5703 5701 5700 5697 5695 5692 5689 5689 5686 5684 5682 5682 5682 5681 5681 5681 5681 5683 5682 5684 5684 5684 5684 5684 5683 5683
5730 5729 5725 5723 5722 5722 5720 5717 5715 5711 5706 5703 5701 5700 5698 5697 5696 5694 5692 5691 5689 5688 5685 5683 5682 5680 5678 5676 5675 5676 5676 5676 5676 5678 5678 5678 5680 5681 5680 5679 5679 5678 5678
5724 5722 5720 5717 5714 5713 5711 5711 5708 5703 5701 5697 5693 5691 5690 5689 5687 5685 5683 5682 5680 5680 5678 5677 5676 5675 5671 5668 5669 5669 5673 5671 5672 5673 5674 5673 5675 5673 5673 5673 5674 5673 5672
5721 5714 5712 5710 5707 5704 5703 5701 5690 5698 5680 5692 5689 5684 5683 5681 5679 5677 5676 5675 5672 5670 5668 5669 5669 5667 5666 5664 5661 5663 5664 5666 5666 5665 5666 5666 5665 5665 5666 5667 5666 5665 5665
5717 5712 5708 5704 5702 5699 5697 5692 5690 5689 5683 5685 5684 5679 5676 5674 5671 5669 5667 5667 5665 5666 5658 5659 5660 5659 5655 5656 5653 5654 5655 5658 5658 5657 5657 5657 5657 5657 5657 5658 5657 5658 5657
5708 5708 5705 5700 5695 5693 5689 5688 5685 5683 5682 5680 5676 5671 5668 5666 5664 5662 5660 5660 5658 5660 5652 5652 5652 5652 5649 5645 5647 5645 5647 5650 5651 5648 5649 5648 5648 5650 5650 5649 5649 5648 5649
5701 5700 5703 5698 5691 5687 5683 5682 5678 5675 5672 5671 5668 5665 5661 5662 5658 5655 5655 5652 5654 5650 5644 5643 5641 5642 5642 5643 5639 5637 5638 5643 5642 5641 5640 5638 5640 5641 5642 5640 5641 5640 5641
5695 5691 5692 5694 5693 5687 5679 5673 5671 5671 5666 5662 5661 5655 5654 5650 5652 5650 5646 5641 5644 5641 5639 5635 5631 5627 5635 5635 5626 5628 5632 5635 5634 5634 5632 5630 5633 5634 5634 5632 5631 5631 5631
5690 5686 5683 5683 5683 5681 5679 5674 5667 5662 5661 5658 5652 5649 5648 5644 5645 5644 5637 5635 5634 5634 5631 5627 5626 5623 5630 5623 5621 5620 5623 5623 5623 5623 5620 5622 5625 5624 5623 5621 5620 5620 5619
5688 5685 5679 5675 5673 5671 5666 5666 5662 5656 5652 5651 5649 5646 5640 5638 5636 5632 5629 5625 5625 5626 5622 5620 5624 5621 5619 5617 5613 5612 5612 5613 5611 5610 5606 5609 5613 5612 5613 5611 5609 5608 5608
5685 5678 5677 5669 5662 5661 5661 5656 5653 5652 5647 5639 5639 5641 5640 5635 5628 5623 5621 5618 5617 5617 5618 5616 5614 5611 5611 5606 5604 5602 5602 5602 5599 5598 5594 5595 5596 5598 5599 5599 5599 5597 5596
5680 5673 5668 5666 5662 5651 5647 5648 5645 5640 5638 5639 5630 5628 5631 5630 5624 5616 5614 5613 5608 5608 5608 5606 5605 5602 5600 5596 5592 5592 5590 5588 5584 5584 5581 5580 5581 5582 5584 5586 5586 5586 5585
5677 5668 5660 5657 5655 5650 5644 5640 5634 5632 5627 5625 5625 5623 5618 5618 5617 5614 5610 5606 5603 5601 5598 5595 5593 5591 5587 5584 5581 5579 5579 5575 5572 5569 5565 5563 5565 5565 5568 5569 5571 5572 5572
5667 5664 5653 5647 5641 5640 5636 5631 5628 5621 5619 5614 5611 5610 5610 5609 5608 5605 5603 5599 5595 5592 5588 5585 5586 5582 5577 5573 5568 5565 5564 5561 5558 5555 5553 5550 5549 5549 5551 5552 5553 5554 5554
5661 5658 5652 5645 5639 5635 5629 5624 5618 5616 5609 5605 5601 5599 5596 5593 5594 5595 5593 5592 5587 5583 5580 5576 5577 5573 5568 5563 5559 5553 5549 5546 5543 5541 5539 5536 5536 5535 5534 5533 5534 5534 5536
5661 5654 5651 5642 5634 5628 5623 5615 5610 5603 5600 5596 5594 5590 5584 5580 5579 5581 5580 5580 5578 5576 5572 5568 5564 5565 5557 5550 5544 5538 5534 5532 5530 5528 5527 5525 5521 5520 5519 5516 5515 5515 5517
5657 5646 5645 5642 5630 5623 5613 5608 5600 5594 5590 5586 5585 5580 5578 5571 5567 5564 5566 5565 5565 5564 5563 5560 5553 5551 5548 5540 5531 5524 5520 5518 5518 5515 5514 5511 5508 5507 5505 5502 5502 5499 5500
5651 5640 5634 5630 5623 5613 5605 5599 5593 5591 5580 5578 5576 5572 5566 5562 5558 5553 5550 5551 5553 5554 5552 5547 5544 5541 5532 5526 5527 5513 5509 5506 5503 5500 5498 5495 5494 5491 5489 5488 5487 5485 5485
5644 5636 5626 5620 5613 5608 5597 5592 5586 5578 5570 5565 5562 5563 5560 5553 5548 5544 5541 5545 5545 5544 5540 5537 5534 5531 5524 5523 5526 5520 5507 5492 5487 5484 5482 5481 5479 5477 5474 5474 5474 5473 5472
5639 5635 5629 5621 5611 5604 5595 5583 5576 5569 5563 5556 5553 5551 5549 5544 5541 5536 5531 5531 5536 5537 5535 5530 5528 5528 5524 5512 5514 5522 5509 5512 5480 5469 5469 5468 5465 5464 5462 5462 5461 5460 5459
5640 5628 5624 5620 5612 5603 5592 5580 5574 5573 5564 5557 5547 5544 5537 5532 5532 5527 5525 5522 5522 5525 5528 5525 5521 5521 5520 5515 5504 5501 5500 5499 5494 5469 5459 5457 5455 5453 5450 5449 5448 5447 5444
5625 5618 5612 5604 5597 5594 5586 5576 5566 5559 5554 5546 5536 5534 5526 5522 5517 5516 5516 5512 5513 5511 5512 5514 5512 5510 5512 5509 5506 5496 5490 5486 5484 5484 5461 5447 5445 5441 5438 5437 5435 5432 5429
5612 5606 5599 5590 5584 5579 5574 5563 5560 5553 5543 5537 5529 5522 5518 5512 5507 5504 5504 5501 5502 5500 5499 5501 5499 5498 5498 5496 5493 5491 5492 5490 5484 5477 5467 5446 5441 5430 5427 5424 5421 5417 5415